ラインムート第2彗星

44P/Reinmuth 2 (2022)

English version
Home page
Updated on November 26, 2022

---------------------------------------------------------------------

・ プロフィール

・ 写真集

・ 軌道要素

Epoch 2022 Aug. 9.0 TT = JDT 2459800.5
T 2022 Apr. 23.18814 TT                                 Rudenko
q   2.1125697            (2000.0)            P               Q
n   0.13895027     Peri.   58.07470     +0.95942645     +0.26418889
a   3.6917288      Node   286.44711     -0.28069440     +0.86187369
e   0.4277560      Incl.    5.89568     -0.02667461     +0.43287177
P   7.09
>From 1416 observations 2008 July 2-2022 Nov. 4, mean residual 0".7.
     Nongravitational parameters A1 = +0.02, A2 = -0.0627.

・ 星図

・ 光度変化

        m1 = 10.6 + 5 logΔ + 13.0 log r  [ ,0]  (              〜2022年 4月23日)
        m1 = 11.6 + 5 logΔ + 10.0 log r  [0, ]  (2022年 4月23日〜              )

---------------------------------------------------------------------

軌道要素はM.P.E.C. 2022-V95に掲載されたものです。
星図はステラナビゲータ Ver.10 (アストロアーツ) で作成したものです。
光度グラフはComet for Windowsで作成したものです。

---------------------------------------------------------------------

Copyright(C) Seiichi Yoshida (comet@aerith.net). All rights reserved.